Regional Weather Roundup
Issued by NWS

Home | Current Version | Previous Version | Text Only | Print | Product List | Glossary On
Versions: 1 2 3 4 5 6 7 8 9 10 11 12 13 14 15 16 17 18 19 20 21 22 23 24 25 26 27
000
ASUS45 KTFX 301310
RWRMT
MONTANA REGIONAL WEATHER ROUNDUP
NATIONAL WEATHER SERVICE GREAT FALLS MT
700 AM MDT THU MAR 30 2017

NOTE: "FAIR" INDICATES FEW OR NO CLOUDS BELOW 12000 FEET WITH NO
SIGNIFICANT WEATHER AND/OR OBSTRUCTIONS TO VISIBILITY.

MTZ001>007-043-301400-
WEST OF THE DIVIDE

CITY           SKY/WX    TMP DP  RH WIND       PRES   REMARKS
KALISPELL      CLOUDY    40  38  93 NW3       29.78R
MISSOULA       PTCLDY    38  36  92 W7        29.80F
BUTTE          CLOUDY    37  33  85 N5        29.76F
MULLAN PASS    SNOW      30  30 100 MISG      29.77S VSB 1/4
ANACONDA         N/A     37  34  87 NW5       29.77S
DEER LODGE       N/A     39  36  87 NW14      29.79S WCI  31
EUREKA           N/A     36  34  93 CALM      29.76S
HAMILTON         N/A     43  37  81 CALM      29.79S
RONAN            N/A     41  36  82 E2        29.84F
$$

MTZ008-052>055-301400-
SOUTHWEST MONTANA

CITY           SKY/WX    TMP DP  RH WIND       PRES   REMARKS
BOZEMAN        LGT RAIN  42  41  96 SE3       29.76S
DILLON         CLOUDY    36  34  92 SE8       29.75F WCI  30
W YELLOWSTONE  LGT SNOW  32  32 100 SW10G18   29.77F WCI  24
ENNIS          CLOUDY    36  34  93 CALM      29.82R FOG
THREE FORKS      N/A     42  42 100 CALM      29.78R
TWIN BRIDGES     N/A     38  33  82 CALM      29.79S
$$

MTZ009-010-012-014-046-048-049-054-301400-
EAST SLOPES AND CENTRAL MONTANA

CITY           SKY/WX    TMP DP  RH WIND       PRES   REMARKS
CUT BANK       MOCLDY    40  31  70 W14       29.70R
GREAT FALLS    CLOUDY    39  32  76 SW7       29.70S
MALMSTROM AFB  CLOUDY    41  33  73 SW3       29.72R
HELENA         CLOUDY    46  36  68 W12       29.75S
AUGUSTA        MOCLDY    39  30  69 NW9       29.71F
BOWMANS CRNR   MOCLDY    39  33  80 S7        29.71S
CHOTEAU          N/A     39  28  65 NW5       29.72S
CONRAD           N/A     33  33 100 S3        29.74S
FAIRFIELD      MOCLDY    39  29  67 CALM      29.70S
POWER            N/A     33  30  89 W8        29.70R WCI  26
RAYNESFORD       N/A     41  31  68 CALM      29.72S
$$

MTZ011-013-016-021-045-047-050-051-301400-
NORTH CENTRAL MONTANA

CITY           SKY/WX    TMP DP  RH WIND       PRES   REMARKS
HAVRE          CLOUDY    36  33  89 SW9       29.68S WCI  29
LEWISTOWN      CLOUDY    41  33  73 SW6       29.71S
N BAR RANCH    MOCLDY    37  28  70 CALM      29.74S
CHINOOK          N/A     30  30 100 CALM      29.69S
DENTON         MOCLDY    41  33  73 W9        29.67S
GEYSER         CLOUDY    43  32  66 W7        29.70S
GRASS RANGE    MOCLDY    42  34  73 SW12      29.68S
JUDITH GAP     MOCLDY    40  33  76 E3        29.71F
STANFORD       CLOUDY    41  33  72 W3        29.71S
WINIFRED       MOCLDY    43  34  71 W7        29.69S
$$

MTZ017>020-022>027-061-062-301400-
NORTHEAST MONTANA

CITY           SKY/WX    TMP DP  RH WIND       PRES   REMARKS
GLASGOW        PTCLDY    38  31  76 E7        29.67F
JORDAN           N/A     39  34  82 W3        29.69R
SIDNEY         CLOUDY    44  35  70 CALM      29.71F
WOLF POINT     MOCLDY    39  33  79 NE3       29.69S
MALTA          CLEAR     32  30  93 CALM      29.68S
PLENTYWOOD       N/A     45  32  61 CALM      29.71R
POPLAR           N/A     43  34  70 CALM      29.70S
$$

MTZ028>42-056>058-301400-
SOUTHCENTRAL AND SOUTHEAST MONTANA

CITY           SKY/WX    TMP DP  RH WIND       PRES   REMARKS
BAKER          CLOUDY    43  38  82 SE7       29.72F
BILLINGS       LGT RAIN  49  37  63 SW6       29.70S
LIVINGSTON     RAIN      42  38  85 W8        29.75R FOG
MILES CITY     CLOUDY    45  35  68 SE7       29.69S
BIG TIMBER     CLOUDY    43  39  87 W15       29.76R
EKALAKA          N/A     48  34  58 E3        29.73F
FORSYTH          N/A     46  37  71 CALM      29.68F
HARLOWTON      LGT RAIN  42  37  83 W14       29.72F
LAUREL           N/A     45  31  58 CALM      29.72R
$$

REGIONAL REPORTS...DAKOTAS

CITY           SKY/WX    TMP DP  RH WIND       PRES   REMARKS
WILLISTON      CLOUDY    44  37  76 CALM      29.72S
MINOT          CLOUDY    45  35  68 S12       29.75S
DICKINSON      CLOUDY    40  36  86 S16       29.72F
BEACH          CLOUDY    45  41  87 S10       29.74S
TIOGA          CLOUDY    37  39 100 E6        29.74S
WATFORD CITY   CLOUDY    43  37  81 SE7       29.72S
BISMARCK       CLOUDY    38  34  85 S12       29.85S WCI  30
GRAND FORKS    MOCLDY    37  35  92 S9        29.93F WCI  30
FARGO          CLEAR     32  31  96 NW5       29.95F FOG
BUFFALO SD       N/A     42  39  89 S8        29.69F
RAPID CITY     FOG       33  32  96 SE6       29.77S VSB<1/4 WCI  28
$$

REGIONAL REPORTS...WYOMING/IDAHO/WASHINGTON

CITY           SKY/WX    TMP DP  RH WIND       PRES   REMARKS
GILLETTE       CLOUDY    40  36  86 S14       29.74F
SHERIDAN       CLOUDY    38  34  85 CALM      29.73S
BUFFALO WY     CLOUDY    44  29  55 W6        29.74F
CODY           CLOUDY    45  34  65 S8        29.73F
YELLOWSTONE LA   N/A     31  31 100 CALM      29.80S
IDAHO FALLS    CLOUDY    43  41  93 S17G23    29.78F
SALMON         CLOUDY    39  37  93 S3        29.77F
BOISE          RAIN      44  43  96 SW6       29.73R FOG
SPOKANE        MOCLDY    37  34  89 S9        29.82S WCI  30
$$

REGIONAL REPORTS...ALBERTA

CITY           SKY/WX    TMP DP  RH WIND       PRES   REMARKS
EDMONTON       CLOUDY    30  28  93 E7        29.74R WCI  23
CALGARY        MOCLDY    36  25  64 S3        29.64R
LETHBRIDGE     PTCLDY    32  28  86 SW15      29.68R WCI  22
MEDICINE HAT   PTCLDY    34  30  86 S9        29.65S WCI  26
WATERTON GATE    N/A     37  30  75 W9          N/A  WCI  31
CARDSTON         N/A     36  32  87 S6          N/A  WCI  31
MILK RIVER       N/A     34  28  80 S3          N/A
$$

REGIONAL REPORTS...SASKATCHEWAN

CITY           SKY/WX    TMP DP  RH WIND       PRES   REMARKS
SWIFT CURRENT  CLOUDY    37  30  75 S7        29.65R
REGINA         MOCLDY    39  32  75 SE6       29.72S
SASKATOON      CLOUDY    34  34 100 NE12      29.78R FOG     WCI  25
VAL MARIE        N/A     27  25  93 W1          N/A
ROCKGLEN         N/A     39  28  65 S7          N/A
ASSINIBOIA       N/A     34  34 100 E9          N/A  WCI  26
$$




USA.gov is the U.S. government's official web portal to all federal, state and local government web resources and services.